This is the latest recevied weather packets stored in our database for station/object SR6WXJG. If no packets are shown the sender has not sent any weather packets the latest 10 day(s).
| Time | Temp. | Humidity | Pressure | Rain* | Wind** | Luminosity | Snow |
|---|---|---|---|---|---|---|---|
| 1777104899 | 12.78° C | 61% | 1016 hPa | 0 mm | - | - | - |
| 1777103999 | 12.78° C | 65% | 1016 hPa | 0 mm | - | - | - |
| 1777103099 | 12.78° C | 66% | 1016 hPa | 0 mm | - | - | - |
| 1777102198 | 11.67° C | 68% | 1016 hPa | 0 mm | - | - | - |
| 1777101298 | 10.56° C | 71% | 1016 hPa | 0 mm | - | - | - |
| 1777100397 | 10.56° C | 74% | 1016 hPa | 0 mm | - | - | - |
| 1777099497 | 10.56° C | 74% | 1017 hPa | 0 mm | - | - | - |
| 1777098597 | 8.89° C | 76% | 1016 hPa | 0 mm | - | - | - |
| 1777097697 | 8.33° C | 79% | 1016 hPa | 0 mm | - | - | - |
| 1777096796 | 8.33° C | 81% | 1017 hPa | 0 mm | - | - | - |
| 1777095896 | 7.78° C | 82% | 1017 hPa | 0 mm | - | - | - |
| 1777094996 | 6.11° C | 84% | 1016 hPa | 0 mm | - | - | - |
| 1777094095 | 5.56° C | 85% | 1016 hPa | 0 mm | - | - | - |
| 1777093195 | 5.56° C | 87% | 1017 hPa | 0 mm | - | - | - |
| 1777092295 | 5.56° C | 88% | 1017 hPa | 0 mm | - | - | - |
| 1777091394 | 4.44° C | 87% | 1016 hPa | 0 mm | - | - | - |
| 1777090494 | 4.44° C | 86% | 1016 hPa | 0 mm | - | - | - |
| 1777089593 | 4.44° C | 89% | 1017 hPa | 0 mm | - | - | - |
| 1777088693 | 4.44° C | 89% | 1017 hPa | 0 mm | - | - | - |
| 1777087793 | 4.44° C | 85% | 1017 hPa | 0 mm | - | - | - |
| 1777086893 | 5° C | 85% | 1017 hPa | 0 mm | - | - | - |
| 1777085992 | 4.44° C | 88% | 1017 hPa | 0 mm | - | - | - |
| 1777085092 | 4.44° C | 88% | 1017 hPa | 0 mm | - | - | - |
| 1777084191 | 5° C | 85% | 1017 hPa | 0 mm | - | - | - |
| 1777083291 | 5° C | 85% | 1017 hPa | 0 mm | - | - | - |
* Rain latest hour (hover to see other rain measurements)
** Current wind speed in m/s (hover to see current wind gust speed)